Regional Weather Roundup
Issued by NWS Upton, NY

Current Version | Previous Version | Graphics & Text | Print | Product List | Glossary Off
Versions: 1 2 3 4 5 6 7 8 9 10 11 12 13 14 15 16 17 18 19 20 21 22 23 24 25 26 27 28 29 30 31 32 33 34 35 36 37 38 39 40 41 42 43 44 45 46 47 48 49 50

000
ASUS41 KOKX 171708
RWROKX

REGIONAL WEATHER ROUNDUP
NATIONAL WEATHER SERVICE NEW YORK NY
100 PM EDT FRI APR 17 2015

NOTE: "FAIR" INDICATES FEW OR NO CLOUDS BELOW 12,000 FEET WITH NO
SIGNIFICANT WEATHER AND/OR OBSTRUCTIONS TO VISIBILITY.

NYZ071-072-176-178-NJZ106-104-171800-
NEW YORK CITY METRO AREA


CITY           SKY/WX    TMP DP  RH WIND       PRES   REMARKS
CENTRAL PARK   CLOUDY    62  54  74 SW8       30.02F
LAGUARDIA APRT CLOUDY    64  55  72 W8        30.00F
KENNEDY INTL   CLOUDY    56  52  86 S6        30.02F
NEWARK/LIBERTY CLOUDY    63  56  78 W13       30.00F
BRNX BOT. GARD   N/A     61  54  77 SW10      30.02S
TETERBORO      LGT RAIN  63  54  72 SW14      29.99F
$$

NYZ177-179-078>081-171800-
LONG ISLAND NEW YORK

CITY           SKY/WX    TMP DP  RH WIND       PRES   REMARKS
FARMINGDALE    CLOUDY    57  55  93 SW8       30.01F
ISLIP          CLOUDY    56  54  93 SW9       30.00F
SHIRLEY        CLOUDY    54  53  97 SW13G22   30.02F
WESTHAMPTON    CLOUDY    53  52  96 SW15G21   30.02F FOG
MONTAUK POINT    N/A     56  53  90 SW10G24   30.01F
$$

NYZ052-065-067-171800-
HUDSON VALLEY

CITY           SKY/WX    TMP DP  RH WIND       PRES   REMARKS
WHITE PLAINS   PTSUNNY   61  54  77 W8G16     29.98F
NEWBURGH       CLOUDY    61  55  82 W9G21     29.99F
MONTGOMERY     CLOUDY    63  30  28 SW12      29.96F
POUGHKEEPSIE   CLOUDY    64  54  69 SW8       29.96F
ALBANY         CLOUDY    58  50  75 N10       29.96F
$$

NJZ001-105-106-008-010-013-015-019>022-104-171800-
NEW JERSEY

CITY           SKY/WX    TMP DP  RH WIND       PRES   REMARKS
NEWARK/LIBERTY CLOUDY    63  56  78 W13       30.00F
TETERBORO      LGT RAIN  63  54  72 SW14      29.99F
CALDWELL       CLOUDY    61  53  75 VRB7      30.00F
MORRISTOWN     CLOUDY    61  55  82 W8        30.01F
SOMERVILLE     CLOUDY    63  54  72 VRB7      30.00F
SUSSEX         CLOUDY    62  54  74 SW12      29.99F
ANDOVER          N/A     59  54  83 VRB6      30.01F
TRENTON        CLOUDY    64  56  75 W6        30.02F
MILLVILLE      MOSUNNY   68  59  73 SW10G18   30.03F
ATLANTIC CITY  CLOUDY    65  58  78 SW10      30.04F
WRIGHTSTOWN    CLOUDY    65  59  79 W13       29.99F
TOMS RIVER     CLOUDY    68  59  73 CALM      30.01F
BELMAR         CLOUDY    63  54  72 SW14      30.02F
$$

PAZ047>061-062-071-171800-
EASTERN PENNSYLVANIA

CITY           SKY/WX    TMP DP  RH WIND       PRES   REMARKS
PHILADELPHIA   MOSUNNY   66  57  72 SW12      30.03F
ALLENTOWN      CLOUDY    64  55  72 W9        30.01F
SCRANTON       CLOUDY    61  52  72 SW13      29.99F
$$

CTZ002-004>006-009-010-012-RIZ004-006-007-MAZ004-011-015-171800-
SOUTHERN NEW ENGLAND
 IN CT

CITY           SKY/WX    TMP DP  RH WIND       PRES   REMARKS
BRADLEY INTL   CLOUDY    59  52  77 SW10      29.96F
HARTFORD       CLOUDY    60  53  77 S8G16     29.97F
DANBURY        CLOUDY    59  52  77 W13       29.99F
WTRBRY/OXFORD  CLOUDY    57  52  82 SW9       29.99F
BRIDGEPORT     CLOUDY    57  52  83 SW9       30.00F
MERIDEN        CLOUDY    60  53  77 SW8       29.98F
NEW HAVEN      CLOUDY    58  55  90 SW9       29.99F
CHESTER        CLOUDY    55  55 100 SW12G17   30.00F FOG
GROTON         CLOUDY    53  51  93 SW10      29.99F FOG
WILLIMANTIC    CLOUDY    58  53  84 SW8       29.98F

 IN RI

CITY           SKY/WX    TMP DP  RH WIND       PRES   REMARKS
PROVIDENCE     CLOUDY    57  53  86 SW14G22   29.98F
BLOCK ISLAND   CLOUDY    48  46  93 SW14      30.00F VSB 1/2
WESTERLY       LGT RAIN  52  51  97 SW10G18   30.01F FOG

 IN MA

CITY           SKY/WX    TMP DP  RH WIND       PRES   REMARKS
BOSTON         CLOUDY    59  54  83 SW20      29.94F
WORCESTER      CLOUDY    54  51  90 SW13      29.95F
WESTFIELD      CLOUDY    60  52  74 SW7       29.95F
PROVINCETOWN   CLOUDY    46  45  93 SW15      29.97F
NANTUCKET      RAIN      49  47  93 SW15      30.02F VSB 1
$$

ANZ330-335-338-340-345-350-353-355-171800-
COASTAL MARINE OBSERVATIONS


STATION/POSITION TIME  SKY/WX   TEMP    WIND        PRES    VSBY  WAVE
                                AIR SEA DIR/SP/G                  HT/PER
                 (UTC)          (F)     (DEG/KT/KT) (MB)    (MI)  (FT/S)
NY HARB ENTRANCE 1650            49 45  200/ 10/ 12 1016.3          3/11
4S FIRE IS       1603               44                N/A           4/10
20S FIRE ISLAND  1550               44              1018.1          3/10
23SW MTP         1650                                 N/A           4/ 9
HUDSON CANYON    NOT AVBL
EXECUTION ROCKS  NOT AVBL
WESTERN LI SOUND NOT AVBL
CENTRAL LI SOUND NOT AVBL
EASTERN LI SOUND 1600            47     240/ 10/ 16   N/A
ROBBINS REEF     1600            59     240/ 11/ 13 1015.6
$$


>>>>>>>>>>>>>>>>>>>>>>>>>>>> KEY <<<<<<<<<<<<<<<<<<<<<<<<<<<
>                                                          <
>     SKY/WX - SKY CONDITION/PRESENT WEATHER               <
>     TMP    - TEMPERATURE IN FAHRENHEIT                   <
>     DP     - DEWPOINT IN FAHRENHEIT                      <
>     RH     - RELATIVE HUMIDITY IN PERCENT                <
>     WIND   - DIRECTION AND SPEED IN MPH                  <
>     PRES   - MEAN SEA LEVEL PRESSURE IN INCHES OF HG     <
>     WCI    - WIND CHILL INDEX                            <
>     VSB    - VISIBILITY IN MILES                         <
>     HX     - HEAT INDEX                                  <
>     TC     - TEMPERATURE IN CELSIUS                      <
>     VRB    - VARIABLE WIND DIRECTION                     <
>                                                          <
>>>>>>>>>>>>>>>>>>>>>>>>>>>> KEY <<<<<<<<<<<<<<<<<<<<<<<<<<<




USA.gov is the U.S. government's official web portal to all federal, state and local government web resources and services.